Home   Weather   Wellington   Past weeks

Flag for New Zealand Past Weather in Wellington, New Zealand — Yesterday and Last 2 Weeks

Now
59 °F

Cool.


Feels Like: 57 °F
Forecast: 59 / 69 °F
Wind: 12 mph from North

Location: Wellington Airport

Current Time: Feb 25, 2017 at 6:43:12 am

Latest Report: Feb 25, 2017 at 6:00 am


Visibility: N/A

Pressure: 29.95 "Hg

Humidity: 77%

Dew Point: 52 °F

Location of WellingtonLocation

Past Weather in Wellington — Graph

°F

Wellington Temperature Yesterday

Maximum temperature yesterday: 66 °F (at 4:30 pm)
Minimum temperature yesterday: 57 °F (at 4:30 am)
Average temperature yesterday: 62 °F

High & Low Weather Summary for the Past Weeks

 TemperatureHumidityPressure
High75 °F (Feb 20, 12:30 pm)100% (Feb 12, 11:30 pm)30.30 "Hg (Feb 12, 11:30 pm)
Low48 °F (Feb 10, 5:30 am)38% (Feb 15, 1:00 pm)29.15 "Hg (Feb 13, 6:30 am)
Average64 °F79%29.93 "Hg
* Reported Feb 10 5:00 am — Feb 25 5:30 am, Wellington, Weather by CustomWeather, © 2017

Note: Actual official high and low records may vary slightly from our data, if they occured in-between our weather recording intervals... More about our weather records

Advertising

Wellington Weather History for the Previous 24 Hours

Scroll right to see more
 ConditionsComfort  
Time TempWeatherWind HumidityBarometerVisibility
5:30 am
Sat, Feb 25
57 °FCool.9 mph82%29.95 "HgN/A
5:00 am59 °FCool.9 mph82%29.98 "HgN/A
4:30 am59 °FCool.12 mph82%29.98 "HgN/A
4:00 am59 °FCool.9 mph82%29.98 "HgN/A
3:30 am59 °FCool.9 mph82%29.98 "HgN/A
3:00 am59 °FCool.7 mph68%29.98 "HgN/A
2:30 am59 °FCool.5 mph72%29.98 "HgN/A
2:00 am59 °FCool.5 mph77%30.01 "HgN/A
1:30 am61 °FCool.6 mph63%30.01 "HgN/A
1:00 am59 °FCool.5 mph77%30.01 "HgN/A
12:30 am61 °FCool.3 mph68%30.04 "HgN/A
12:00 am61 °FCool.5 mph63%30.04 "HgN/A
11:30 pm
Fri, Feb 24
61 °FCool.3 mph68%30.04 "HgN/A
11:00 pm63 °FMild.6 mph59%30.04 "HgN/A
10:30 pm63 °FMild.5 mph59%30.04 "HgN/A
10:00 pm63 °FMild.5 mph64%30.04 "HgN/A
9:30 pm64 °FMild.6 mph64%30.04 "HgN/A
9:00 pm64 °FMild.6 mph68%30.04 "HgN/A
8:30 pm64 °FMild.2 mph73%30.04 "HgN/A
8:00 pm64 °FMild.2 mph73%30.04 "HgN/A
7:30 pm64 °FMild.3 mph68%30.04 "HgN/A
7:00 pm66 °FMild.6 mph68%30.04 "HgN/A
6:30 pm64 °FMild.6 mph73%30.04 "HgN/A
6:00 pm64 °FMild.7 mph73%30.07 "HgN/A
5:30 pm66 °FMild.9 mph64%30.07 "HgN/A
5:00 pm66 °FMild.10 mph68%30.07 "HgN/A
4:30 pm66 °FMild.10 mph68%30.09 "HgN/A
4:00 pm64 °FMild.10 mph73%30.09 "HgN/A
3:30 pm64 °FMild.10 mph78%30.12 "HgN/A
3:00 pm64 °FMild.9 mph78%30.12 "HgN/A
2:30 pm64 °FMild.9 mph78%30.12 "HgN/A
2:00 pm64 °FMild.10 mph78%30.15 "HgN/A
1:30 pm64 °FMild.10 mph73%30.15 "HgN/A
1:00 pm64 °FMild.12 mph78%30.15 "HgN/A
12:30 pm63 °FMild.12 mph83%30.15 "HgN/A
12:00 pm63 °FMild.10 mph77%30.18 "HgN/A
11:30 am63 °FMild.10 mph83%30.18 "HgN/A
11:00 am63 °FMild.9 mph77%30.18 "HgN/A
10:30 am63 °FMild.8 mph77%30.18 "HgN/A
10:00 am61 °FCool.5 mph83%30.21 "HgN/A
9:30 am61 °FCool.3 mph83%30.18 "HgN/A
9:00 am59 °FCool.6 mph88%30.21 "HgN/A
8:30 am59 °FCool.7 mph88%30.21 "HgN/A
8:00 am59 °FCool.5 mph88%30.21 "HgN/A
7:30 am57 °FCool.2 mph88%30.18 "HgN/A
7:00 am57 °FCool.2 mph88%30.18 "HgN/A
6:30 am57 °FCool.3 mph88%30.18 "HgN/A
6:00 am57 °FCool.5 mph88%30.18 "HgN/A
Weather by CustomWeather, © 2017

See weather overviewHow to use our weather pages